Simultaneous Nadir Overpasses (SNOs) Predictions

Prediction of SNOs between AQUA and METOP-B Satellite Orbit:

Table of predicted SNOs for the next 14.0 days since TLE Epoch: 2/25/2023
Index Date (AQUA) Time (AQUA) Lat,Lon (AQUA) SZA (AQUA ) Date (METOP-B) Time (METOP-B) Lat,Lon (METOP-B) SZA (METOP-B ) Distance(km) Time Diff (sec)
1 02/25/2023 23:07:27 74.20,-171.30 83.16 02/25/2023 23:06:14 74.16,-171.57 83.14 9.57 73
2 02/25/2023 23:56:53 -74.30, -3.88 96.75 02/25/2023 23:56:53 -74.30, -3.88 96.75 0.62 0
3 02/26/2023 00:46:21 74.38, 163.57 83.33 02/26/2023 00:47:31 74.38, 163.66 83.32 2.77 70
4 02/28/2023 17:50:32 -74.29, 87.75 97.80 02/28/2023 17:49:53 -74.30, 87.86 97.78 3.58 39
5 02/28/2023 18:39:59 74.32,-104.69 82.23 02/28/2023 18:40:32 74.33,-104.73 82.24 1.33 33
6 03/03/2023 11:44:10 -74.25, 179.46 98.89 03/03/2023 11:42:56 -74.19, 179.33 98.93 7.51 74
7 03/03/2023 12:33:37 74.29, -13.00 81.14 03/03/2023 12:33:33 74.32, -13.02 81.17 3.20 4
8 03/03/2023 13:23:03 -74.38, 154.44 98.78 03/03/2023 13:24:14 -74.37, 154.43 98.80 1.27 71
9 03/06/2023 06:27:14 74.27, 78.67 80.06 03/06/2023 06:26:34 74.29, 78.66 80.09 2.59 40
10 03/06/2023 07:16:40 -74.35,-113.89 99.87 03/06/2023 07:17:15 -74.34,-113.88 99.88 1.17 35
11 03/09/2023 00:20:48 74.22, 170.42 78.93 03/09/2023 00:19:35 74.21, 170.21 78.94 6.49 73
12 03/09/2023 01:10:14 -74.30, -22.13 101.00 03/09/2023 01:10:15 -74.31, -22.21 100.98 2.98 1



Historial Predications of SNOs between AQUA and METOP-B
